DELTA 1 R/B, 2436

Orbit data source: Space-Track

DELTA 1 R/B, 2436 is space debris in SSO originally from a launch on Sun, 02 Oct 1966 UTC launched from the Air Force Western Test Range (AFWTR). Debris objects in space refer to the collection of defunct objects orbiting the Earth. Examples of debris include non-operational satellites, rocket bodies, and fragments generated from explosions, collisions, or faulty payload assembly.

Loading next visibility...
Identifier
2436, 1966-087B
Orbit
SSO
Country
Flag of USUS
Related business
Manufacturer
ABL
Mission
Spacecraft
Bus & Motor
ALTAIR, Unknown motor
Mass
33 kg wet, 33 kg dry
Launch date (UTC)
1966-10-02 (60 years ago)
Launch vehicle
Unknown
Launch site
Air Force Western Test Range (AFWTR)
Object type
Payload
Rocket body
Debris
Shape & HBR
CYL, 1.1 m
Radar Cross Section
Medium (>0.1 m² and <1 m²)

Expand to show TLE details & history
Last TLE update: 21 hours ago

TLE from 21 hours ago
0 DELTA 1 R/B
1 02436U 66087B   26263.46056738 -.00000015  00000-0  15408-3 0  9998
2 02436 101.0531 210.8767 0064769 196.9517 162.9396 12.57681683752084
Epoch: 2026-09-20T11:03Z
TLE epoch observation values (Epoch: 2026-09-20T11:03:13.021Z)
Latitude
0.00003°
Longitude
45.71801°
Altitude
1,483.536 km
Speed
7.1 km/s
True Right ascension
14h 03m 30s
True Declination
0° 00' 00"
Sunlit
Object was in daylight at epoch
Visualization orbit readout
Latitude
Unknown
Longitude
Unknown
Altitude
Unknown
Speed
Unknown
Apparent Right ascension
Unknown
Apparent Declination
Unknown
Sunlit
N/A
Visualization observer readout
Local Sidereal Time
01:04:29
Azimuth
Unknown
Elevation
Unknown
Doppler factor
Unknown
Orbital elements
Apogee altitude
1,480.598 km
Perigee altitude
1,379.452 km
Semi-major axis
7,808.162 km
Eccentricity
0.00648
Inclination
101.0531°
RAAN
210.8767°
Arg. of periapsis
196.9517°
True anomaly
163.15567°
Mean anomaly
162.9396°
Eccentric anomaly
163.0478°
Mean motion
3.14572 °/min
Orbital period
114.44 mins
BSTAR
0.00015408
Loading maneuver chart data...
Computing Atmospheric mass density...
Loading historical data...
Loading historical data...
Loading historical data...
Loading historical data...
Loading historical data...
Loading historical data...
Loading historical data...
Other satellites on launch #87 in the year 1966 (1966-10-02 UTC)

Documentation

Showing up to 5 results
|